This is the latest recevied weather packets stored in our database for station/object KC5L-7. If no packets are shown the sender has not sent any weather packets the latest 10 day(s).
| Time | Temp. | Humidity | Pressure | Rain* | Wind** | Luminosity | Snow |
|---|---|---|---|---|---|---|---|
| 1778090180 | 26.67° C | 75% | 1008.3 hPa | 0 mm | - | - | - |
| 1778089580 | 26.67° C | 77% | 1008.5 hPa | 0 mm | - | - | - |
| 1778088981 | 26.11° C | 79% | 1008.4 hPa | 0 mm | - | - | - |
| 1778088380 | 26.11° C | 81% | 1008.6 hPa | 0 mm | - | - | - |
| 1778087781 | 25.56° C | 81% | 1008.7 hPa | 0 mm | - | - | - |
| 1778087180 | 25.56° C | 82% | 1008.7 hPa | 0 mm | - | - | - |
| 1778086582 | 25.56° C | 82% | 1008.8 hPa | 0 mm | - | - | - |
| 1778085980 | 25.56° C | 82% | 1008.8 hPa | 0 mm | - | - | - |
| 1778085382 | 25.56° C | 85% | 1008.7 hPa | 0 mm | - | - | - |
| 1778084782 | 25° C | 85% | 1008.7 hPa | 0 mm | - | - | - |
| 1778084180 | 25° C | 88% | 1008.6 hPa | 0 mm | - | - | - |
| 1778083581 | 25° C | 88% | 1008.5 hPa | 0 mm | - | - | - |
| 1778082980 | 24.44° C | 88% | 1008.6 hPa | 0 mm | - | - | - |
| 1778082380 | 24.44° C | 88% | 1008.6 hPa | 0 mm | - | - | - |
| 1778081780 | 24.44° C | 88% | 1008.4 hPa | 0 mm | - | - | - |
| 1778081181 | 24.44° C | 86% | 1008.3 hPa | 0 mm | - | - | - |
| 1778080580 | 24.44° C | 85% | 1008.1 hPa | 0 mm | - | - | - |
| 1778079981 | 24.44° C | 86% | 1008.1 hPa | 0 mm | - | - | - |
| 1778079380 | 24.44° C | 86% | 1007.9 hPa | 0 mm | - | - | - |
| 1778078780 | 24.44° C | 86% | 1008 hPa | 0 mm | - | - | - |
| 1778078180 | 24.44° C | 86% | 1007.8 hPa | 0 mm | - | - | - |
| 1778077580 | 24.44° C | 86% | 1007.6 hPa | 0 mm | - | - | - |
| 1778076981 | 24.44° C | 86% | 1007.5 hPa | 0 mm | - | - | - |
| 1778076544 | 24.44° C | 86% | 1007.3 hPa | 0 mm | - | - | - |
| 1778076380 | 24.44° C | 86% | 1007.3 hPa | 0 mm | - | - | - |
* Rain latest hour (hover to see other rain measurements)
** Current wind speed in m/s (hover to see current wind gust speed)